"Pseudo-MPEC" for P11bVnp

Created 2021 Jan 21 12:07:15 UT using Find_Orb

Click here for an explanation of pseudo-MPECs

 
 Astrometry: 
     P11bVnp  C2021 01 12ejtf=As!t=Kkx$_ewHpnGo2iAstrometryuOredacted;%WQl$\xF51
     P11bVnp  C2021 01 12\ys/!H'm%*Sj\U:*dk_kK=clickvqhereulTNO-G^.Iei=DsJ4/%F51
     P11bVnp  C2021 01 12)9'G0M,UR#,#yforxWM'eNfMR+IPjsSR!G3H1:/@explanationlF51

Station data:
(F51) Pan-STARRS 1, Haleakala  (N20.707235 W156.255910)  US/Hawaii.
   Observers N. Primak, A. Schultz, S. Watters, J. Thiel, T. Goggia. Measurer
   PS1 Science Consortium. 1.8-m Ritchey-Chrétien + CCD.

Orbital elements:  P11bVnp
   Perihelion 2021 Jan 27.044931 +/- 40.0931 TT =  1:04:42 (JD 2459241.544931)
Epoch 2021 Jan 12.0 TT = JDT 2459226.5   Earth MOID: 0.0515   Ma: 0.0459
M 348.80812903 +/- 21.224116        (J2000 ecliptic)          AutoNEOCP
n   0.74389648 +/- 0.383067         Peri.  189.42057 +/- 67.473361
a   1.20631588 +/- 0.414118         Node   297.35785 +/- 53.794636
e   0.1428932 +/- 0.261426          Incl.   11.49955 +/- 11.049160
P   1.32/483.93d           H 26.7   G  0.15   U 12.1  SR
q 1.03394154 +/- 0.170247    Q 1.37869022 +/- 33.1779
From 3 observations 2021 Jan. 12 (49.3 min); mean residual 0".29
Residuals in arcseconds: 
210112 F51  .05+  .18+    210112 F51  .15-  .55-    210112 F51  .10+  .37+    

Ephemerides (geocentric):
Date (UTC) HH   RA              Dec         delta   r     elong  mag " sig PA
---- -- -- --  -------------   -----------  ------ ------ -----  --- ---- ---
2021 01 21 12  07 42 32.889   +05 45 19.86  .05239 1.0345 163.9 21.2  60d 154
2021 01 21 13  07 42 28.252   +05 35 41.90  .05241 1.0345 163.7 21.2  61d 154
2021 01 21 14  07 42 23.624   +05 26 04.62  .05244 1.0345 163.6 21.2  61d 154
2021 01 21 15  07 42 19.008   +05 16 28.04  .05247 1.0345 163.4 21.2  61d 155
2021 01 21 16  07 42 14.402   +05 06 52.17  .05250 1.0345 163.3 21.2  61d 155
2021 01 21 17  07 42 09.807   +04 57 17.01  .05253 1.0345 163.1 21.2  61d 155
2021 01 21 18  07 42 05.223   +04 47 42.58  .05256 1.0345 162.9 21.2  62d 155
2021 01 21 19  07 42 00.649   +04 38 08.88  .05259 1.0345 162.8 21.2  62d 155
2021 01 21 20  07 41 56.087   +04 28 35.92  .05262 1.0345 162.6 21.2  62d 155
2021 01 21 21  07 41 51.534   +04 19 03.72  .05265 1.0345 162.4 21.2  62d 155
2021 01 21 22  07 41 46.993   +04 09 32.27  .05268 1.0344 162.3 21.3  62d 155
2021 01 21 23  07 41 42.462   +04 00 01.60  .05272 1.0344 162.1 21.3  62d 155
2021 01 22 00  07 41 37.942   +03 50 31.71  .05275 1.0344 162.0 21.3  63d 156
2021 01 22 01  07 41 33.433   +03 41 02.61  .05278 1.0344 161.8 21.3  63d 156
2021 01 22 02  07 41 28.934   +03 31 34.31  .05282 1.0344 161.6 21.3  63d 156
2021 01 22 03  07 41 24.446   +03 22 06.81  .05285 1.0344 161.5 21.3  63d 156
2021 01 22 04  07 41 19.969   +03 12 40.13  .05289 1.0344 161.3 21.3  63d 156
2021 01 22 05  07 41 15.502   +03 03 14.28  .05292 1.0344 161.2 21.3  63d 156
2021 01 22 06  07 41 11.047   +02 53 49.25  .05296 1.0344 161.0 21.3  63d 156
2021 01 22 07  07 41 06.601   +02 44 25.07  .05299 1.0344 160.8 21.3  64d 156
2021 01 22 08  07 41 02.167   +02 35 01.74  .05303 1.0344 160.7 21.3  64d 156
2021 01 22 09  07 40 57.743   +02 25 39.27  .05307 1.0344 160.5 21.3  64d 156
2021 01 22 10  07 40 53.330   +02 16 17.67  .05310 1.0343 160.4 21.3  64d 156
2021 01 22 11  07 40 48.928   +02 06 56.94  .05314 1.0343 160.2 21.3  64d 156
2021 01 22 12  07 40 44.536   +01 57 37.09  .05318 1.0343 160.0 21.3  64d 156
2021 01 22 13  07 40 40.155   +01 48 18.14  .05322 1.0343 159.9 21.3  64d 156
2021 01 22 14  07 40 35.785   +01 39 00.08  .05326 1.0343 159.7 21.4  64d 156
2021 01 22 15  07 40 31.425   +01 29 42.93  .05330 1.0343 159.6 21.4  64d 156
2021 01 22 16  07 40 27.076   +01 20 26.70  .05334 1.0343 159.4 21.4  65d 156
2021 01 22 17  07 40 22.738   +01 11 11.39  .05338 1.0343 159.3 21.4  65d 156
2021 01 22 18  07 40 18.410   +01 01 57.01  .05342 1.0343 159.1 21.4  65d 156
2021 01 22 19  07 40 14.094   +00 52 43.57  .05346 1.0343 158.9 21.4  65d 156
2021 01 22 20  07 40 09.787   +00 43 31.07  .05350 1.0343 158.8 21.4  65d 156
2021 01 22 21  07 40 05.492   +00 34 19.53  .05354 1.0343 158.6 21.4  65d 156
2021 01 22 22  07 40 01.207   +00 25 08.94  .05358 1.0343 158.5 21.4  65d 156
2021 01 22 23  07 39 56.933   +00 15 59.32  .05363 1.0343 158.3 21.4  65d 156
2021 01 23 00  07 39 52.669   +00 06 50.68  .05367 1.0342 158.2 21.4  65d 157
2021 01 23 01  07 39 48.416   -00 02 16.98  .05372 1.0342 158.0 21.4  65d 157
2021 01 23 02  07 39 44.174   -00 11 23.66  .05376 1.0342 157.9 21.4  65d 157
2021 01 23 03  07 39 39.942   -00 20 29.34  .05380 1.0342 157.7 21.4  66d 157
2021 01 23 04  07 39 35.721   -00 29 34.01  .05385 1.0342 157.6 21.4  66d 157
2021 01 23 05  07 39 31.511   -00 38 37.68  .05389 1.0342 157.4 21.5  66d 157
2021 01 23 06  07 39 27.311   -00 47 40.34  .05394 1.0342 157.2 21.5  66d 157
2021 01 23 07  07 39 23.122   -00 56 41.97  .05399 1.0342 157.1 21.5  66d 157
2021 01 23 08  07 39 18.944   -01 05 42.58  .05403 1.0342 156.9 21.5  66d 157
2021 01 23 09  07 39 14.776   -01 14 42.15  .05408 1.0342 156.8 21.5  66d 157
2021 01 23 10  07 39 10.618   -01 23 40.69  .05413 1.0342 156.6 21.5  66d 157
2021 01 23 11  07 39 06.472   -01 32 38.17  .05418 1.0342 156.5 21.5  66d 157